Time,TemperatureF,DewpointF,PressureIn,WindDirection,WindDirectionDegrees,WindSpeedMPH,WindSpeedGustMPH,Humidity,HourlyPrecipIn,Conditions,Clouds,dailyrainin,SoftwareType,DateUTC
2013-02-02 00:01:00,34.5,31.8,30.31,WNW,293,0.0,0.2,90,0.00,,,0.00,WUHU216HW,2013-02-02 08:01:00,
2013-02-02 00:06:00,34.3,31.6,30.31,WNW,293,0.0,0.0,90,0.00,,,0.00,WUHU216HW,2013-02-02 08:06:00,
2013-02-02 00:11:00,34.3,31.6,30.31,WNW,293,0.0,0.0,90,0.00,,,0.00,WUHU216HW,2013-02-02 08:11:00,
2013-02-02 00:16:00,34.1,31.4,30.31,WNW,293,0.0,0.0,90,0.00,,,0.00,WUHU216HW,2013-02-02 08:16:00,
2013-02-02 00:21:00,34.1,31.4,30.31,WNW,293,0.0,0.0,90,0.00,,,0.00,WUHU216HW,2013-02-02 08:21:00,
2013-02-02 00:26:00,34.1,31.4,30.31,WNW,293,0.0,0.0,90,0.00,,,0.00,WUHU216HW,2013-02-02 08:26:00,
2013-02-02 00:31:00,34.1,31.4,30.31,WNW,293,0.0,0.0,90,0.00,,,0.00,WUHU216HW,2013-02-02 08:31:00,
2013-02-02 00:36:00,34.0,31.3,30.31,NW,315,0.0,0.0,90,0.00,,,0.00,WUHU216HW,2013-02-02 08:36:00,
2013-02-02 00:41:00,34.0,31.3,30.31,NW,315,0.0,0.0,90,0.00,,,0.00,WUHU216HW,2013-02-02 08:41:00,
2013-02-02 00:46:00,34.0,31.3,30.31,NW,315,0.0,0.0,90,0.00,,,0.00,WUHU216HW,2013-02-02 08:46:00,
2013-02-02 00:51:00,33.8,31.1,30.31,NW,315,0.0,0.0,90,0.00,,,0.00,WUHU216HW,2013-02-02 08:51:00,
2013-02-02 00:56:00,33.6,30.9,30.31,NW,315,0.0,0.0,90,0.00,,,0.00,WUHU216HW,2013-02-02 08:56:00,
2013-02-02 01:01:00,33.6,30.9,30.31,NW,315,0.0,0.0,90,0.00,,,0.00,WUHU216HW,2013-02-02 09:01:00,
2013-02-02 01:06:00,33.6,31.2,30.31,NW,315,0.0,0.0,91,0.00,,,0.00,WUHU216HW,2013-02-02 09:06:00,
2013-02-02 01:11:00,33.6,31.2,30.31,NNW,338,0.0,0.4,91,0.00,,,0.00,WUHU216HW,2013-02-02 09:11:00,
2013-02-02 01:16:00,33.4,31.0,30.31,NNW,338,0.0,0.4,91,0.00,,,0.00,WUHU216HW,2013-02-02 09:16:00,
2013-02-02 01:21:00,33.4,31.0,30.30,NNW,338,0.0,0.4,91,0.00,,,0.00,WUHU216HW,2013-02-02 09:21:00,
2013-02-02 01:26:00,33.4,31.0,30.30,North,0,0.0,0.2,91,0.00,,,0.00,WUHU216HW,2013-02-02 09:26:00,
2013-02-02 01:31:00,33.4,31.0,30.31,North,0,0.0,0.0,91,0.00,,,0.00,WUHU216HW,2013-02-02 09:31:00,
2013-02-02 01:36:00,33.2,30.5,30.31,North,0,0.2,0.2,90,0.00,,,0.00,WUHU216HW,2013-02-02 09:36:00,
2013-02-02 01:41:00,33.1,30.4,30.31,North,0,0.0,0.2,90,0.00,,,0.00,WUHU216HW,2013-02-02 09:41:00,
2013-02-02 01:46:00,33.1,30.7,30.31,North,0,0.0,0.0,91,0.00,,,0.00,WUHU216HW,2013-02-02 09:46:00,
2013-02-02 01:51:00,33.1,30.7,30.31,North,0,0.0,0.0,91,0.00,,,0.00,WUHU216HW,2013-02-02 09:51:00,
2013-02-02 01:56:00,32.9,30.5,30.31,North,0,0.0,0.0,91,0.00,,,0.00,WUHU216HW,2013-02-02 09:56:00,
2013-02-02 02:01:00,32.9,30.5,30.31,North,0,0.0,0.0,91,0.00,,,0.00,WUHU216HW,2013-02-02 10:01:00,
2013-02-02 02:06:00,32.9,30.5,30.31,North,0,0.0,0.0,91,0.00,,,0.00,WUHU216HW,2013-02-02 10:06:00,
2013-02-02 02:11:00,32.9,30.5,30.31,North,0,0.2,0.4,91,0.00,,,0.00,WUHU216HW,2013-02-02 10:11:00,
2013-02-02 02:16:00,32.7,30.3,30.30,North,0,0.0,0.4,91,0.00,,,0.00,WUHU216HW,2013-02-02 10:16:00,
2013-02-02 02:21:00,32.7,30.3,30.31,North,0,0.4,0.4,91,0.00,,,0.00,WUHU216HW,2013-02-02 10:21:00,
2013-02-02 02:26:00,32.7,30.3,30.31,WNW,293,0.0,0.4,91,0.00,,,0.00,WUHU216HW,2013-02-02 10:26:00,
2013-02-02 02:31:00,32.9,30.5,30.31,WNW,293,0.0,0.2,91,0.00,,,0.00,WUHU216HW,2013-02-02 10:31:00,
2013-02-02 02:36:00,32.9,30.5,30.30,WNW,293,0.0,0.0,91,0.00,,,0.00,WUHU216HW,2013-02-02 10:36:00,
2013-02-02 02:41:00,32.9,30.5,30.30,WNW,293,0.0,0.0,91,0.00,,,0.00,WUHU216HW,2013-02-02 10:41:00,
2013-02-02 02:46:00,33.1,30.7,30.30,WNW,293,0.0,0.2,91,0.00,,,0.00,WUHU216HW,2013-02-02 10:46:00,
2013-02-02 02:51:00,32.9,30.5,30.30,WNW,293,0.0,0.2,91,0.00,,,0.00,WUHU216HW,2013-02-02 10:51:00,
2013-02-02 02:56:00,32.9,30.5,30.30,NW,315,0.0,0.0,91,0.00,,,0.00,WUHU216HW,2013-02-02 10:56:00,
2013-02-02 03:01:00,32.9,30.5,30.30,NW,315,0.0,0.0,91,0.00,,,0.00,WUHU216HW,2013-02-02 11:01:00,
2013-02-02 03:06:00,32.7,30.3,30.30,NNW,338,0.0,0.4,91,0.00,,,0.00,WUHU216HW,2013-02-02 11:06:00,
2013-02-02 03:11:00,32.7,30.3,30.30,NNW,338,0.0,0.4,91,0.00,,,0.00,WUHU216HW,2013-02-02 11:11:00,
2013-02-02 03:16:00,32.7,30.3,30.29,NNW,338,0.0,0.2,91,0.00,,,0.00,WUHU216HW,2013-02-02 11:16:00,
2013-02-02 03:21:00,32.7,30.3,30.29,NNW,338,0.0,0.2,91,0.00,,,0.00,WUHU216HW,2013-02-02 11:21:00,
2013-02-02 03:26:00,32.7,30.3,30.29,NNW,338,0.0,0.0,91,0.00,,,0.00,WUHU216HW,2013-02-02 11:26:00,
2013-02-02 03:31:00,32.7,30.3,30.29,NW,315,0.0,0.4,91,0.00,,,0.00,WUHU216HW,2013-02-02 11:31:00,
2013-02-02 03:36:00,32.7,30.3,30.29,NW,315,0.2,0.4,91,0.00,,,0.00,WUHU216HW,2013-02-02 11:36:00,
2013-02-02 03:41:00,32.7,30.3,30.29,NW,315,0.0,0.2,91,0.00,,,0.00,WUHU216HW,2013-02-02 11:41:00,
2013-02-02 03:46:00,32.7,30.3,30.28,NW,315,0.0,0.2,91,0.00,,,0.00,WUHU216HW,2013-02-02 11:46:00,
2013-02-02 03:51:00,32.7,30.3,30.29,NW,315,0.0,0.0,91,0.00,,,0.00,WUHU216HW,2013-02-02 11:51:00,
2013-02-02 03:56:00,32.5,30.1,30.28,NNW,338,0.0,0.0,91,0.00,,,0.00,WUHU216HW,2013-02-02 11:56:00,
2013-02-02 04:01:00,32.5,30.1,30.28,North,0,0.0,0.0,91,0.00,,,0.00,WUHU216HW,2013-02-02 12:01:00,
2013-02-02 04:06:00,32.5,30.1,30.28,North,0,0.0,0.0,91,0.00,,,0.00,WUHU216HW,2013-02-02 12:06:00,
2013-02-02 04:11:00,32.7,30.3,30.28,North,0,0.0,0.0,91,0.00,,,0.00,WUHU216HW,2013-02-02 12:11:00,
2013-02-02 04:16:00,32.7,30.3,30.28,North,0,0.0,0.0,91,0.00,,,0.00,WUHU216HW,2013-02-02 12:16:00,
2013-02-02 04:21:00,32.7,30.3,30.27,North,0,0.0,0.0,91,0.00,,,0.00,WUHU216HW,2013-02-02 12:21:00,
2013-02-02 04:26:00,32.7,30.3,30.27,North,0,0.0,0.2,91,0.00,,,0.00,WUHU216HW,2013-02-02 12:26:00,
2013-02-02 04:31:00,32.7,30.6,30.27,North,0,0.0,0.2,92,0.00,,,0.00,WUHU216HW,2013-02-02 12:31:00,
2013-02-02 04:36:00,32.7,30.6,30.27,North,0,0.0,0.2,92,0.00,,,0.00,WUHU216HW,2013-02-02 12:36:00,
2013-02-02 04:41:00,32.7,30.6,30.27,North,0,0.0,0.2,92,0.00,,,0.00,WUHU216HW,2013-02-02 12:41:00,
2013-02-02 04:46:00,32.7,30.6,30.27,North,0,0.0,0.0,92,0.00,,,0.00,WUHU216HW,2013-02-02 12:46:00,
2013-02-02 04:51:00,32.7,30.6,30.27,North,0,0.0,0.0,92,0.00,,,0.00,WUHU216HW,2013-02-02 12:51:00,
2013-02-02 04:56:00,32.7,30.3,30.27,North,0,0.0,0.0,91,0.00,,,0.00,WUHU216HW,2013-02-02 12:56:00,
2013-02-02 05:01:00,32.5,30.1,30.27,North,0,0.0,0.2,91,0.00,,,0.00,WUHU216HW,2013-02-02 13:01:00,
2013-02-02 05:06:00,32.3,29.9,30.27,North,0,0.0,0.2,91,0.00,,,0.00,WUHU216HW,2013-02-02 13:06:00,
2013-02-02 05:11:00,32.5,30.4,30.27,North,0,0.0,0.0,92,0.00,,,0.00,WUHU216HW,2013-02-02 13:11:00,
2013-02-02 05:16:00,32.5,30.4,30.27,North,0,0.0,0.0,92,0.00,,,0.00,WUHU216HW,2013-02-02 13:16:00,
2013-02-02 05:21:00,32.7,30.6,30.27,North,0,0.0,0.0,92,0.00,,,0.00,WUHU216HW,2013-02-02 13:21:00,
2013-02-02 05:26:00,32.7,30.6,30.27,North,0,0.0,0.0,92,0.00,,,0.00,WUHU216HW,2013-02-02 13:26:00,
2013-02-02 05:31:00,32.7,30.6,30.27,North,0,0.0,0.0,92,0.00,,,0.00,WUHU216HW,2013-02-02 13:31:00,
2013-02-02 05:36:00,32.7,30.6,30.27,North,0,0.0,0.0,92,0.00,,,0.00,WUHU216HW,2013-02-02 13:36:00,
2013-02-02 05:41:00,32.7,30.6,30.27,NW,315,0.0,0.0,92,0.00,,,0.00,WUHU216HW,2013-02-02 13:41:00,
2013-02-02 05:46:00,32.7,30.6,30.26,NW,315,0.0,0.0,92,0.00,,,0.00,WUHU216HW,2013-02-02 13:46:00,
2013-02-02 05:51:00,32.7,30.6,30.26,NW,315,0.0,0.0,92,0.00,,,0.00,WUHU216HW,2013-02-02 13:51:00,
2013-02-02 05:56:00,32.7,30.6,30.26,NW,315,0.0,0.0,92,0.00,,,0.00,WUHU216HW,2013-02-02 13:56:00,
2013-02-02 06:01:00,32.7,30.6,30.25,North,0,0.0,0.4,92,0.00,,,0.00,WUHU216HW,2013-02-02 14:01:00,
2013-02-02 06:06:00,32.7,30.6,30.25,North,0,0.0,0.4,92,0.00,,,0.00,WUHU216HW,2013-02-02 14:06:00,
2013-02-02 06:11:00,32.5,30.1,30.25,North,0,0.0,0.0,91,0.00,,,0.00,WUHU216HW,2013-02-02 14:11:00,
2013-02-02 06:16:00,32.5,30.1,30.25,North,0,0.0,0.0,91,0.00,,,0.00,WUHU216HW,2013-02-02 14:16:00,
2013-02-02 06:21:00,32.5,30.1,30.25,North,0,0.0,0.0,91,0.00,,,0.00,WUHU216HW,2013-02-02 14:21:00,
2013-02-02 06:26:00,32.3,29.9,30.25,North,0,0.2,0.2,91,0.00,,,0.00,WUHU216HW,2013-02-02 14:26:00,
2013-02-02 06:31:00,32.3,29.9,30.25,North,0,0.0,0.2,91,0.00,,,0.00,WUHU216HW,2013-02-02 14:31:00,
2013-02-02 06:36:00,32.3,29.9,30.25,North,0,0.0,0.0,91,0.00,,,0.00,WUHU216HW,2013-02-02 14:36:00,
2013-02-02 06:41:00,32.3,29.9,30.25,North,0,0.0,0.0,91,0.00,,,0.00,WUHU216HW,2013-02-02 14:41:00,
2013-02-02 06:46:00,32.3,30.2,30.25,North,0,0.0,0.0,92,0.00,,,0.00,WUHU216HW,2013-02-02 14:46:00,
2013-02-02 06:51:00,32.2,30.1,30.25,North,0,0.0,0.0,92,0.00,,,0.00,WUHU216HW,2013-02-02 14:51:00,
2013-02-02 06:56:00,32.2,30.1,30.25,North,0,0.0,0.7,92,0.00,,,0.00,WUHU216HW,2013-02-02 14:56:00,
2013-02-02 07:01:00,32.3,30.2,30.25,North,0,0.0,0.7,92,0.00,,,0.00,WUHU216HW,2013-02-02 15:01:00,
2013-02-02 07:06:00,32.3,30.2,30.25,North,0,0.0,0.2,92,0.00,,,0.00,WUHU216HW,2013-02-02 15:06:00,
2013-02-02 07:11:00,32.3,30.2,30.25,North,0,0.2,0.4,92,0.00,,,0.00,WUHU216HW,2013-02-02 15:11:00,
2013-02-02 07:16:00,32.2,30.1,30.25,North,0,0.0,0.4,92,0.00,,,0.00,WUHU216HW,2013-02-02 15:16:00,
2013-02-02 07:21:00,32.2,30.1,30.25,North,0,0.0,0.4,92,0.00,,,0.00,WUHU216HW,2013-02-02 15:21:00,
2013-02-02 07:26:00,32.2,30.1,30.25,North,0,0.0,0.0,92,0.00,,,0.00,WUHU216HW,2013-02-02 15:26:00,
2013-02-02 07:31:00,32.2,30.1,30.25,North,0,0.0,0.0,92,0.00,,,0.00,WUHU216HW,2013-02-02 15:31:00,
2013-02-02 07:36:00,32.2,30.1,30.25,North,0,0.0,0.0,92,0.00,,,0.00,WUHU216HW,2013-02-02 15:36:00,
2013-02-02 07:41:00,32.2,30.1,30.25,North,0,0.0,0.0,92,0.00,,,0.00,WUHU216HW,2013-02-02 15:41:00,
2013-02-02 07:46:00,32.2,30.1,30.26,North,0,0.0,0.0,92,0.00,,,0.00,WUHU216HW,2013-02-02 15:46:00,
2013-02-02 07:51:00,32.2,29.8,30.26,North,0,0.0,0.0,91,0.00,,,0.00,WUHU216HW,2013-02-02 15:51:00,
2013-02-02 07:56:00,32.2,30.1,30.26,North,0,0.0,0.0,92,0.00,,,0.00,WUHU216HW,2013-02-02 15:56:00,
2013-02-02 08:01:00,32.2,29.8,30.25,North,0,0.0,0.4,91,0.00,,,0.00,WUHU216HW,2013-02-02 16:01:00,
2013-02-02 08:06:00,32.0,29.9,30.25,North,0,0.0,0.4,92,0.00,,,0.00,WUHU216HW,2013-02-02 16:06:00,
2013-02-02 08:11:00,32.0,29.9,30.25,North,0,0.2,0.4,92,0.00,,,0.00,WUHU216HW,2013-02-02 16:11:00,
2013-02-02 08:16:00,32.0,29.9,30.25,North,0,0.0,0.4,92,0.00,,,0.00,WUHU216HW,2013-02-02 16:16:00,
2013-02-02 08:21:00,32.0,29.9,30.25,North,0,0.0,0.2,92,0.00,,,0.00,WUHU216HW,2013-02-02 16:21:00,
2013-02-02 08:26:00,32.2,30.1,30.25,North,0,0.0,0.0,92,0.00,,,0.00,WUHU216HW,2013-02-02 16:26:00,
2013-02-02 08:31:00,32.3,30.2,30.25,North,0,0.0,0.0,92,0.00,,,0.00,WUHU216HW,2013-02-02 16:31:00,
2013-02-02 08:36:00,32.7,30.6,30.25,North,0,0.0,0.0,92,0.00,,,0.00,WUHU216HW,2013-02-02 16:36:00,
2013-02-02 08:41:00,33.1,31.2,30.25,North,0,0.4,1.1,93,0.00,,,0.00,WUHU216HW,2013-02-02 16:41:00,
2013-02-02 08:46:00,33.2,31.1,30.25,North,0,0.0,1.1,92,0.00,,,0.00,WUHU216HW,2013-02-02 16:46:00,
2013-02-02 08:51:00,33.4,31.3,30.25,North,0,0.0,0.4,92,0.00,,,0.00,WUHU216HW,2013-02-02 16:51:00,
2013-02-02 08:56:00,33.6,31.7,30.25,North,0,0.0,0.2,93,0.00,,,0.00,WUHU216HW,2013-02-02 16:56:00,
2013-02-02 09:01:00,34.0,32.1,30.25,NNE,23,0.0,0.4,93,0.00,,,0.00,WUHU216HW,2013-02-02 17:01:00,
2013-02-02 09:06:00,34.1,32.2,30.25,ENE,68,0.4,0.9,93,0.00,,,0.00,WUHU216HW,2013-02-02 17:06:00,
2013-02-02 09:11:00,34.1,32.0,30.25,East,90,0.2,0.9,92,0.00,,,0.00,WUHU216HW,2013-02-02 17:11:00,
2013-02-02 09:16:00,34.1,32.0,30.25,SE,135,0.4,0.9,92,0.00,,,0.00,WUHU216HW,2013-02-02 17:16:00,
2013-02-02 09:22:00,34.1,32.0,30.26,SE,135,0.9,1.1,92,0.00,,,0.00,WUHU216HW,2013-02-02 17:22:00,
2013-02-02 09:26:00,34.3,32.4,30.25,West,270,0.4,1.1,93,0.00,,,0.00,WUHU216HW,2013-02-02 17:26:00,
2013-02-02 09:32:00,34.5,32.4,30.25,WNW,293,0.4,1.1,92,0.00,,,0.00,WUHU216HW,2013-02-02 17:32:00,
2013-02-02 09:37:00,34.5,32.4,30.25,South,180,1.6,1.6,92,0.00,,,0.00,WUHU216HW,2013-02-02 17:37:00,
2013-02-02 09:42:00,34.7,32.6,30.25,South,180,0.4,1.6,92,0.00,,,0.00,WUHU216HW,2013-02-02 17:42:00,
2013-02-02 09:47:00,35.0,33.1,30.25,SE,135,0.2,1.6,93,0.00,,,0.00,WUHU216HW,2013-02-02 17:47:00,
2013-02-02 09:52:00,35.6,33.7,30.25,SE,135,1.1,1.6,93,0.00,,,0.00,WUHU216HW,2013-02-02 17:52:00,
2013-02-02 09:57:00,35.9,34.0,30.25,ESE,113,0.4,1.8,93,0.00,,,0.00,WUHU216HW,2013-02-02 17:57:00,
2013-02-02 10:02:00,36.3,34.2,30.25,WNW,293,0.4,1.8,92,0.00,,,0.00,WUHU216HW,2013-02-02 18:02:00,
2013-02-02 10:07:00,36.1,34.0,30.25,ESE,113,0.2,1.3,92,0.00,,,0.00,WUHU216HW,2013-02-02 18:07:00,
2013-02-02 10:12:00,36.3,34.2,30.25,SE,135,0.4,1.3,92,0.00,,,0.00,WUHU216HW,2013-02-02 18:12:00,
2013-02-02 10:17:00,36.5,34.3,30.25,East,90,0.0,2.5,92,0.00,,,0.00,WUHU216HW,2013-02-02 18:17:00,
2013-02-02 10:22:00,36.7,34.5,30.24,ENE,68,0.4,2.5,92,0.00,,,0.00,WUHU216HW,2013-02-02 18:22:00,
2013-02-02 10:27:00,36.7,34.5,30.24,ESE,113,0.9,1.8,92,0.00,,,0.00,WUHU216HW,2013-02-02 18:27:00,
2013-02-02 10:32:00,36.8,34.6,30.24,SSE,158,0.2,1.8,92,0.00,,,0.00,WUHU216HW,2013-02-02 18:32:00,
2013-02-02 10:37:00,37.0,34.8,30.25,SW,225,1.1,1.6,92,0.00,,,0.00,WUHU216HW,2013-02-02 18:37:00,
2013-02-02 10:42:00,37.4,35.2,30.25,South,180,1.3,1.6,92,0.00,,,0.00,WUHU216HW,2013-02-02 18:42:00,
2013-02-02 10:47:00,37.7,35.8,30.25,South,180,0.7,1.3,93,0.00,,,0.00,WUHU216HW,2013-02-02 18:47:00,
2013-02-02 10:52:00,38.1,36.5,30.25,East,90,0.4,1.1,94,0.00,,,0.00,WUHU216HW,2013-02-02 18:52:00,
2013-02-02 10:57:00,38.5,36.9,30.25,ESE,113,0.4,2.7,94,0.00,,,0.00,WUHU216HW,2013-02-02 18:57:00,
2013-02-02 11:02:00,38.8,36.9,30.25,SSW,203,1.3,2.7,93,0.00,,,0.00,WUHU216HW,2013-02-02 19:02:00,
2013-02-02 11:07:00,38.8,36.9,30.24,SW,225,1.8,2.2,93,0.00,,,0.00,WUHU216HW,2013-02-02 19:07:00,
2013-02-02 11:12:00,39.2,37.3,30.24,SW,225,1.1,2.2,93,0.00,,,0.00,WUHU216HW,2013-02-02 19:12:00,
2013-02-02 11:17:00,39.4,37.5,30.24,SW,225,1.8,2.0,93,0.00,,,0.00,WUHU216HW,2013-02-02 19:17:00,
2013-02-02 11:22:00,39.5,37.6,30.24,SW,225,0.9,2.7,93,0.00,,,0.00,WUHU216HW,2013-02-02 19:22:00,
2013-02-02 11:27:00,39.9,38.0,30.24,SSW,203,1.3,2.7,93,0.00,,,0.00,WUHU216HW,2013-02-02 19:27:00,
2013-02-02 11:32:00,40.3,38.4,30.24,SSW,203,1.8,2.7,93,0.00,,,0.00,WUHU216HW,2013-02-02 19:32:00,
2013-02-02 11:37:00,40.3,38.4,30.24,WSW,248,1.1,2.2,93,0.00,,,0.00,WUHU216HW,2013-02-02 19:37:00,
2013-02-02 11:42:00,40.4,38.2,30.24,WSW,248,1.3,2.0,92,0.00,,,0.00,WUHU216HW,2013-02-02 19:42:00,
2013-02-02 11:47:00,40.4,37.9,30.24,NNW,338,0.0,2.0,91,0.00,,,0.00,WUHU216HW,2013-02-02 19:47:00,
2013-02-02 11:52:00,40.3,37.8,30.23,SW,225,1.1,1.8,91,0.00,,,0.00,WUHU216HW,2013-02-02 19:52:00,
2013-02-02 11:57:00,40.4,38.2,30.23,SE,135,1.8,2.5,92,0.00,,,0.00,WUHU216HW,2013-02-02 19:57:00,
2013-02-02 12:02:00,40.6,38.4,30.23,SSE,158,1.1,2.5,92,0.00,,,0.00,WUHU216HW,2013-02-02 20:02:00,
2013-02-02 12:07:00,41.0,38.8,30.23,SSW,203,1.3,2.0,92,0.00,,,0.00,WUHU216HW,2013-02-02 20:07:00,
2013-02-02 12:12:00,41.2,38.7,30.23,SSW,203,2.9,2.9,91,0.00,,,0.00,WUHU216HW,2013-02-02 20:12:00,
2013-02-02 12:17:00,41.3,38.8,30.23,South,180,2.9,2.9,91,0.00,,,0.00,WUHU216HW,2013-02-02 20:17:00,
2013-02-02 12:22:00,41.5,39.0,30.22,ESE,113,1.8,2.9,91,0.00,,,0.00,WUHU216HW,2013-02-02 20:22:00,
2013-02-02 12:27:00,41.7,39.2,30.22,SE,135,1.1,2.9,91,0.00,,,0.00,WUHU216HW,2013-02-02 20:27:00,
2013-02-02 12:32:00,42.1,39.6,30.22,SE,135,0.4,2.2,91,0.00,,,0.00,WUHU216HW,2013-02-02 20:32:00,
2013-02-02 12:37:00,42.2,39.7,30.22,South,180,1.1,1.6,91,0.00,,,0.00,WUHU216HW,2013-02-02 20:37:00,
2013-02-02 12:42:00,42.4,39.9,30.22,SSE,158,0.2,1.3,91,0.00,,,0.00,WUHU216HW,2013-02-02 20:42:00,
2013-02-02 12:47:00,42.6,40.1,30.22,South,180,0.2,1.6,91,0.00,,,0.00,WUHU216HW,2013-02-02 20:47:00,
2013-02-02 12:52:00,42.8,40.3,30.21,ESE,113,1.3,1.6,91,0.00,,,0.00,WUHU216HW,2013-02-02 20:52:00,
2013-02-02 12:57:00,43.0,40.2,30.21,South,180,1.1,1.3,90,0.00,,,0.00,WUHU216HW,2013-02-02 20:57:00,
2013-02-02 13:02:00,43.0,40.2,30.21,SSE,158,0.4,1.6,90,0.00,,,0.00,WUHU216HW,2013-02-02 21:02:00,
2013-02-02 13:07:00,43.3,40.8,30.22,ESE,113,1.8,1.8,91,0.00,,,0.00,WUHU216HW,2013-02-02 21:07:00,
2013-02-02 13:12:00,43.7,41.2,30.21,SSE,158,1.1,1.8,91,0.00,,,0.00,WUHU216HW,2013-02-02 21:12:00,
2013-02-02 13:17:00,43.9,41.4,30.21,ESE,113,1.6,1.8,91,0.00,,,0.00,WUHU216HW,2013-02-02 21:17:00,
2013-02-02 13:22:00,44.2,41.7,30.21,South,180,0.9,1.8,91,0.00,,,0.00,WUHU216HW,2013-02-02 21:22:00,
2013-02-02 13:27:00,44.2,41.7,30.21,South,180,1.1,1.8,91,0.00,,,0.00,WUHU216HW,2013-02-02 21:27:00,
2013-02-02 13:32:00,44.4,41.9,30.21,SSE,158,0.4,1.1,91,0.00,,,0.00,WUHU216HW,2013-02-02 21:32:00,
2013-02-02 13:37:00,44.6,42.1,30.21,SE,135,0.4,0.9,91,0.00,,,0.00,WUHU216HW,2013-02-02 21:37:00,
2013-02-02 13:42:00,44.9,42.4,30.20,SSE,158,1.1,1.3,91,0.00,,,0.00,WUHU216HW,2013-02-02 21:42:00,
2013-02-02 13:47:00,44.9,42.1,30.20,South,180,1.1,1.6,90,0.00,,,0.00,WUHU216HW,2013-02-02 21:47:00,
2013-02-02 13:52:00,45.1,42.3,30.20,South,180,1.1,1.6,90,0.00,,,0.00,WUHU216HW,2013-02-02 21:52:00,
2013-02-02 13:57:00,45.3,42.5,30.20,SW,225,2.0,2.5,90,0.00,,,0.00,WUHU216HW,2013-02-02 21:57:00,
2013-02-02 14:02:00,45.5,42.4,30.19,South,180,1.3,2.5,89,0.00,,,0.00,WUHU216HW,2013-02-02 22:02:00,
2013-02-02 14:07:00,45.7,42.6,30.19,South,180,1.1,2.0,89,0.00,,,0.00,WUHU216HW,2013-02-02 22:07:00,
2013-02-02 14:12:00,45.8,42.7,30.19,SW,225,1.3,1.6,89,0.00,,,0.00,WUHU216HW,2013-02-02 22:12:00,
2013-02-02 14:17:00,46.0,42.9,30.19,SSW,203,1.1,1.3,89,0.00,,,0.00,WUHU216HW,2013-02-02 22:17:00,
2013-02-02 14:22:00,46.2,42.8,30.19,SW,225,2.5,2.7,88,0.00,,,0.00,WUHU216HW,2013-02-02 22:22:00,
2013-02-02 14:27:00,46.2,42.8,30.19,SW,225,3.4,3.6,88,0.00,,,0.00,WUHU216HW,2013-02-02 22:27:00,
2013-02-02 14:32:00,46.2,42.5,30.19,SW,225,5.1,5.4,87,0.00,,,0.00,WUHU216HW,2013-02-02 22:32:00,
2013-02-02 14:37:00,46.2,42.2,30.19,SW,225,6.7,6.7,86,0.00,,,0.00,WUHU216HW,2013-02-02 22:37:00,
2013-02-02 14:42:00,45.8,41.8,30.19,SW,225,5.8,6.9,86,0.00,,,0.00,WUHU216HW,2013-02-02 22:42:00,
2013-02-02 14:47:00,45.8,41.8,30.19,SW,225,2.9,6.9,86,0.00,,,0.00,WUHU216HW,2013-02-02 22:47:00,
2013-02-02 14:52:00,45.8,41.8,30.19,SW,225,6.0,6.0,86,0.00,,,0.00,WUHU216HW,2013-02-02 22:52:00,
2013-02-02 14:57:00,45.8,41.5,30.19,SW,225,5.4,7.6,85,0.00,,,0.00,WUHU216HW,2013-02-02 22:57:00,
2013-02-02 15:02:00,45.7,41.7,30.19,SW,225,3.6,7.6,86,0.00,,,0.00,WUHU216HW,2013-02-02 23:02:00,
2013-02-02 15:07:00,45.7,41.4,30.19,SW,225,6.3,7.6,85,0.00,,,0.00,WUHU216HW,2013-02-02 23:07:00,
2013-02-02 15:12:00,45.3,41.0,30.19,SW,225,5.4,7.6,85,0.00,,,0.00,WUHU216HW,2013-02-02 23:12:00,
2013-02-02 15:17:00,44.8,40.6,30.19,SW,225,7.6,8.7,85,0.00,,,0.00,WUHU216HW,2013-02-02 23:17:00,
2013-02-02 15:22:00,43.9,40.0,30.19,WSW,248,6.9,8.7,86,0.00,,,0.00,WUHU216HW,2013-02-02 23:22:00,
2013-02-02 15:27:00,43.1,39.2,30.19,SW,225,5.6,8.1,86,0.00,,,0.00,WUHU216HW,2013-02-02 23:27:00,
2013-02-02 15:32:00,42.6,39.0,30.19,SW,225,6.5,7.6,87,0.00,,,0.00,WUHU216HW,2013-02-02 23:32:00,
2013-02-02 15:37:00,42.2,38.9,30.19,SW,225,3.4,7.6,88,0.00,,,0.00,WUHU216HW,2013-02-02 23:37:00,
2013-02-02 15:42:00,41.9,38.6,30.19,SW,225,6.0,7.4,88,0.00,,,0.00,WUHU216HW,2013-02-02 23:42:00,
2013-02-02 15:47:00,41.7,38.4,30.19,SW,225,2.7,6.3,88,0.00,,,0.00,WUHU216HW,2013-02-02 23:47:00,
2013-02-02 15:52:00,41.3,38.0,30.19,SW,225,5.8,6.7,88,0.00,,,0.00,WUHU216HW,2013-02-02 23:52:00,
2013-02-02 15:57:00,41.2,38.2,30.19,SSW,203,4.7,6.7,89,0.00,,,0.00,WUHU216HW,2013-02-02 23:57:00,
2013-02-02 16:02:00,41.0,38.0,30.19,SW,225,4.3,5.8,89,0.00,,,0.00,WUHU216HW,2013-02-03 00:02:00,
2013-02-02 16:07:00,40.8,37.8,30.19,SW,225,2.7,5.4,89,0.00,,,0.00,WUHU216HW,2013-02-03 00:07:00,
2013-02-02 16:12:00,40.8,37.8,30.19,SW,225,2.0,5.4,89,0.00,,,0.00,WUHU216HW,2013-02-03 00:12:00,
2013-02-02 16:17:00,40.8,38.1,30.19,SW,225,3.4,3.6,90,0.00,,,0.00,WUHU216HW,2013-02-03 00:17:00,
2013-02-02 16:22:00,40.8,38.1,30.19,SW,225,0.7,3.6,90,0.00,,,0.00,WUHU216HW,2013-02-03 00:22:00,
2013-02-02 16:27:00,40.8,38.1,30.19,SW,225,3.1,3.4,90,0.00,,,0.00,WUHU216HW,2013-02-03 00:27:00,
2013-02-02 16:32:00,40.6,37.9,30.19,SW,225,2.9,3.6,90,0.00,,,0.00,WUHU216HW,2013-02-03 00:32:00,
2013-02-02 16:37:00,40.6,37.9,30.19,SW,225,3.4,3.6,90,0.00,,,0.00,WUHU216HW,2013-02-03 00:37:00,
2013-02-02 16:42:00,40.4,37.7,30.19,SW,225,1.6,4.0,90,0.00,,,0.00,WUHU216HW,2013-02-03 00:42:00,
2013-02-02 16:47:00,40.4,37.7,30.19,SW,225,1.3,4.0,90,0.00,,,0.00,WUHU216HW,2013-02-03 00:47:00,
2013-02-02 16:52:00,40.4,37.7,30.19,SW,225,2.5,3.4,90,0.00,,,0.00,WUHU216HW,2013-02-03 00:52:00,
2013-02-02 16:57:00,40.3,37.6,30.19,SW,225,2.7,3.8,90,0.00,,,0.00,WUHU216HW,2013-02-03 00:57:00,
2013-02-02 17:02:00,40.3,37.6,30.19,SW,225,1.3,4.5,90,0.00,,,0.00,WUHU216HW,2013-02-03 01:02:00,
2013-02-02 17:07:00,40.3,37.6,30.19,SW,225,2.2,4.5,90,0.00,,,0.00,WUHU216HW,2013-02-03 01:07:00,
2013-02-02 17:12:00,40.1,37.4,30.19,SW,225,3.4,3.8,90,0.00,,,0.00,WUHU216HW,2013-02-03 01:12:00,
2013-02-02 17:17:00,39.9,37.2,30.19,SW,225,2.0,4.0,90,0.00,,,0.00,WUHU216HW,2013-02-03 01:17:00,
2013-02-02 17:22:00,39.9,37.2,30.19,SW,225,1.8,4.0,90,0.00,,,0.00,WUHU216HW,2013-02-03 01:22:00,
2013-02-02 17:27:00,39.9,37.2,30.19,SW,225,3.1,3.6,90,0.00,,,0.00,WUHU216HW,2013-02-03 01:27:00,
2013-02-02 17:32:00,39.7,37.0,30.19,SW,225,3.4,3.6,90,0.00,,,0.00,WUHU216HW,2013-02-03 01:32:00,
2013-02-02 17:37:00,39.5,36.8,30.19,SW,225,1.6,3.6,90,0.00,,,0.00,WUHU216HW,2013-02-03 01:37:00,
2013-02-02 17:42:00,39.4,36.7,30.19,SW,225,0.0,2.5,90,0.00,,,0.00,WUHU216HW,2013-02-03 01:42:00,
2013-02-02 17:47:00,39.2,36.5,30.20,SW,225,0.0,0.7,90,0.00,,,0.00,WUHU216HW,2013-02-03 01:47:00,
2013-02-02 17:52:00,39.2,36.5,30.19,SW,225,2.0,2.0,90,0.00,,,0.00,WUHU216HW,2013-02-03 01:52:00,
2013-02-02 17:57:00,39.2,36.5,30.20,SW,225,0.9,2.0,90,0.00,,,0.00,WUHU216HW,2013-02-03 01:57:00,
2013-02-02 18:02:00,39.2,36.5,30.20,SSW,203,0.4,1.8,90,0.00,,,0.00,WUHU216HW,2013-02-03 02:02:00,
2013-02-02 18:07:00,39.2,36.5,30.19,SW,225,1.1,1.1,90,0.00,,,0.00,WUHU216HW,2013-02-03 02:07:00,
2013-02-02 18:12:00,39.2,36.5,30.19,SW,225,1.6,1.6,90,0.00,,,0.00,WUHU216HW,2013-02-03 02:12:00,
2013-02-02 18:17:00,39.2,36.5,30.19,SW,225,2.0,2.0,90,0.00,,,0.00,WUHU216HW,2013-02-03 02:17:00,
2013-02-02 18:22:00,39.2,36.5,30.19,SW,225,1.1,2.0,90,0.00,,,0.00,WUHU216HW,2013-02-03 02:22:00,
2013-02-02 18:27:00,39.2,36.5,30.19,SW,225,0.2,1.8,90,0.00,,,0.00,WUHU216HW,2013-02-03 02:27:00,
2013-02-02 18:33:00,39.2,36.5,30.19,SE,135,0.0,0.9,90,0.00,,,0.00,WUHU216HW,2013-02-03 02:33:00,
2013-02-02 18:38:00,39.2,36.5,30.19,ESE,113,1.8,1.8,90,0.00,,,0.00,WUHU216HW,2013-02-03 02:38:00,
2013-02-02 18:43:00,39.2,36.7,30.19,South,180,2.5,2.5,91,0.00,,,0.00,WUHU216HW,2013-02-03 02:43:00,
2013-02-02 18:48:00,39.2,36.7,30.19,SSE,158,1.6,2.5,91,0.00,,,0.00,WUHU216HW,2013-02-03 02:48:00,
2013-02-02 18:53:00,39.0,36.5,30.19,SW,225,1.8,2.9,91,0.00,,,0.00,WUHU216HW,2013-02-03 02:53:00,
2013-02-02 18:58:00,38.8,36.4,30.19,SW,225,3.4,3.4,91,0.00,,,0.00,WUHU216HW,2013-02-03 02:58:00,
2013-02-02 19:03:00,38.8,36.4,30.19,WSW,248,1.8,3.4,91,0.00,,,0.00,WUHU216HW,2013-02-03 03:03:00,
2013-02-02 19:08:00,38.6,36.2,30.19,West,270,0.2,2.5,91,0.00,,,0.00,WUHU216HW,2013-02-03 03:08:00,
2013-02-02 19:13:00,38.5,36.1,30.19,SE,135,0.0,2.5,91,0.00,,,0.00,WUHU216HW,2013-02-03 03:13:00,
2013-02-02 19:18:00,38.5,36.1,30.19,ENE,68,0.0,0.7,91,0.00,,,0.00,WUHU216HW,2013-02-03 03:18:00,
2013-02-02 19:23:00,38.5,36.1,30.20,SW,225,0.0,0.9,91,0.00,,,0.00,WUHU216HW,2013-02-03 03:23:00,
2013-02-02 19:28:00,38.5,36.1,30.20,WNW,293,0.0,0.9,91,0.00,,,0.00,WUHU216HW,2013-02-03 03:28:00,
2013-02-02 19:33:00,38.5,36.1,30.20,North,0,0.4,0.4,91,0.00,,,0.00,WUHU216HW,2013-02-03 03:33:00,
2013-02-02 19:38:00,38.5,36.1,30.19,North,0,0.0,0.4,91,0.00,,,0.00,WUHU216HW,2013-02-03 03:38:00,
2013-02-02 19:43:00,38.5,36.1,30.19,WSW,248,0.9,0.9,91,0.00,,,0.00,WUHU216HW,2013-02-03 03:43:00,
2013-02-02 19:48:00,38.5,36.1,30.19,SSW,203,0.4,1.8,91,0.00,,,0.00,WUHU216HW,2013-02-03 03:48:00,
2013-02-02 19:53:00,38.5,36.1,30.19,SW,225,0.7,1.8,91,0.00,,,0.00,WUHU216HW,2013-02-03 03:53:00,
2013-02-02 19:58:00,38.5,36.1,30.19,SW,225,0.7,1.6,91,0.00,,,0.00,WUHU216HW,2013-02-03 03:58:00,
2013-02-02 20:03:00,38.3,35.9,30.19,South,180,0.2,1.6,91,0.00,,,0.00,WUHU216HW,2013-02-03 04:03:00,
2013-02-02 20:08:00,38.3,35.9,30.19,NE,45,0.9,1.1,91,0.00,,,0.00,WUHU216HW,2013-02-03 04:08:00,
2013-02-02 20:13:00,38.1,35.4,30.19,NE,45,0.0,1.1,90,0.00,,,0.00,WUHU216HW,2013-02-03 04:13:00,
2013-02-02 20:18:00,37.9,35.5,30.19,NE,45,0.0,0.9,91,0.00,,,0.00,WUHU216HW,2013-02-03 04:18:00,
2013-02-02 20:23:00,37.9,35.2,30.19,West,270,0.0,0.4,90,0.00,,,0.00,WUHU216HW,2013-02-03 04:23:00,
2013-02-02 20:28:00,37.7,35.0,30.19,NW,315,0.0,0.2,90,0.00,,,0.00,WUHU216HW,2013-02-03 04:28:00,
2013-02-02 20:33:00,37.4,34.7,30.19,SSW,203,0.4,0.4,90,0.00,,,0.00,WUHU216HW,2013-02-03 04:33:00,
2013-02-02 20:38:00,37.4,34.7,30.19,East,90,0.2,0.9,90,0.00,,,0.00,WUHU216HW,2013-02-03 04:38:00,
2013-02-02 20:43:00,37.4,34.7,30.19,ESE,113,0.4,1.8,90,0.00,,,0.00,WUHU216HW,2013-02-03 04:43:00,
2013-02-02 20:48:00,37.2,34.5,30.19,SE,135,0.2,1.8,90,0.00,,,0.00,WUHU216HW,2013-02-03 04:48:00,
2013-02-02 20:53:00,37.2,34.5,30.19,SW,225,1.8,2.0,90,0.00,,,0.00,WUHU216HW,2013-02-03 04:53:00,
2013-02-02 20:58:00,37.0,34.3,30.19,WSW,248,0.0,2.0,90,0.00,,,0.00,WUHU216HW,2013-02-03 04:58:00,
2013-02-02 21:00:00,37.0,34.3,30.19,South,180,0.7,2.0,90,0.00,,,0.00,WUHU216HW,2013-02-03 05:00:00,
2013-02-02 21:01:00,37.0,34.3,30.19,South,180,1.1,2.0,90,0.00,,,0.00,WUHU216HW,2013-02-03 05:01:00,
2013-02-02 21:02:00,37.0,34.3,30.19,NW,315,0.4,2.0,90,0.00,,,0.00,WUHU216HW,2013-02-03 05:02:00,
2013-02-02 21:07:00,37.0,34.3,30.19,West,270,0.0,1.1,90,0.00,,,0.00,WUHU216HW,2013-02-03 05:07:00,
2013-02-02 21:12:00,37.0,34.3,30.19,SSW,203,0.0,0.9,90,0.00,,,0.00,WUHU216HW,2013-02-03 05:12:00,
2013-02-02 21:17:00,37.0,34.3,30.19,SSW,203,0.0,0.9,90,0.00,,,0.00,WUHU216HW,2013-02-03 05:17:00,
2013-02-02 21:22:00,37.0,34.3,30.19,South,180,0.4,1.6,90,0.00,,,0.00,WUHU216HW,2013-02-03 05:22:00,
2013-02-02 21:27:00,37.0,34.3,30.19,South,180,1.3,1.8,90,0.00,,,0.00,WUHU216HW,2013-02-03 05:27:00,
2013-02-02 21:33:00,37.0,34.3,30.18,SW,225,0.9,1.8,90,0.00,,,0.00,WUHU216HW,2013-02-03 05:33:00,
2013-02-02 21:38:00,37.0,34.3,30.19,SSW,203,0.9,1.8,90,0.00,,,0.00,WUHU216HW,2013-02-03 05:38:00,
2013-02-02 21:43:00,37.0,34.3,30.19,SE,135,0.0,0.9,90,0.00,,,0.00,WUHU216HW,2013-02-03 05:43:00,
2013-02-02 21:48:00,37.0,34.3,30.19,SE,135,0.0,0.7,90,0.00,,,0.00,WUHU216HW,2013-02-03 05:48:00,
2013-02-02 21:53:00,37.0,34.3,30.19,ESE,113,0.2,1.1,90,0.00,,,0.00,WUHU216HW,2013-02-03 05:53:00,
2013-02-02 21:58:00,37.0,34.3,30.19,ESE,113,1.1,1.1,90,0.00,,,0.00,WUHU216HW,2013-02-03 05:58:00,
2013-02-02 22:03:00,37.0,34.3,30.18,SE,135,0.7,1.3,90,0.00,,,0.00,WUHU216HW,2013-02-03 06:03:00,
2013-02-02 22:08:00,36.8,34.1,30.18,SSW,203,1.1,1.3,90,0.00,,,0.00,WUHU216HW,2013-02-03 06:08:00,
2013-02-02 22:13:00,37.0,34.6,30.18,SE,135,0.4,1.3,91,0.00,,,0.00,WUHU216HW,2013-02-03 06:13:00,
2013-02-02 22:18:00,36.8,34.1,30.19,ESE,113,0.0,1.3,90,0.00,,,0.00,WUHU216HW,2013-02-03 06:18:00,
2013-02-02 22:23:00,36.7,34.0,30.19,ENE,68,0.0,0.9,90,0.00,,,0.00,WUHU216HW,2013-02-03 06:23:00,
2013-02-02 22:28:00,36.7,34.0,30.19,NE,45,0.0,0.4,90,0.00,,,0.00,WUHU216HW,2013-02-03 06:28:00,
2013-02-02 22:33:00,36.5,33.8,30.19,East,90,1.1,1.3,90,0.00,,,0.00,WUHU216HW,2013-02-03 06:33:00,
2013-02-02 22:38:00,36.3,33.6,30.19,East,90,0.2,1.3,90,0.00,,,0.00,WUHU216HW,2013-02-03 06:38:00,
2013-02-02 22:43:00,36.3,33.6,30.19,SE,135,0.2,1.3,90,0.00,,,0.00,WUHU216HW,2013-02-03 06:43:00,
2013-02-02 22:48:00,36.3,33.6,30.20,SE,135,0.0,1.1,90,0.00,,,0.00,WUHU216HW,2013-02-03 06:48:00,
2013-02-02 22:53:00,36.3,33.6,30.20,South,180,0.0,0.4,90,0.00,,,0.00,WUHU216HW,2013-02-03 06:53:00,
2013-02-02 22:58:00,36.1,33.4,30.20,South,180,0.9,1.1,90,0.00,,,0.00,WUHU216HW,2013-02-03 06:58:00,
2013-02-02 23:03:00,35.9,33.2,30.20,SSW,203,1.1,1.1,90,0.00,,,0.00,WUHU216HW,2013-02-03 07:03:00,
2013-02-02 23:08:00,35.9,33.2,30.20,SW,225,0.4,1.3,90,0.00,,,0.00,WUHU216HW,2013-02-03 07:08:00,
2013-02-02 23:13:00,35.9,33.2,30.20,SSW,203,0.0,1.3,90,0.00,,,0.00,WUHU216HW,2013-02-03 07:13:00,
2013-02-02 23:18:00,35.9,33.2,30.20,SSW,203,0.4,0.4,90,0.00,,,0.00,WUHU216HW,2013-02-03 07:18:00,
2013-02-02 23:23:00,35.9,33.2,30.20,SSW,203,0.0,0.4,90,0.00,,,0.00,WUHU216HW,2013-02-03 07:23:00,
2013-02-02 23:28:00,35.8,33.1,30.21,SW,225,0.0,0.4,90,0.00,,,0.00,WUHU216HW,2013-02-03 07:28:00,
2013-02-02 23:33:00,35.8,33.1,30.21,SSE,158,0.4,0.7,90,0.00,,,0.00,WUHU216HW,2013-02-03 07:33:00,
2013-02-02 23:38:00,35.6,32.9,30.21,SSE,158,0.0,1.6,90,0.00,,,0.00,WUHU216HW,2013-02-03 07:38:00,
2013-02-02 23:43:00,35.6,32.9,30.21,SSE,158,0.0,1.6,90,0.00,,,0.00,WUHU216HW,2013-02-03 07:43:00,
2013-02-02 23:48:00,35.6,32.9,30.21,SSE,158,0.0,0.4,90,0.00,,,0.00,WUHU216HW,2013-02-03 07:48:00,
2013-02-02 23:53:00,35.4,32.7,30.21,SSW,203,0.0,0.4,90,0.00,,,0.00,WUHU216HW,2013-02-03 07:53:00,
2013-02-02 23:58:00,35.2,32.5,30.21,SW,225,0.0,0.4,90,0.00,,,0.00,WUHU216HW,2013-02-03 07:58:00,